13P/Olbers (2024)

Japanese version
Home page
Updated on December 29, 2018

---------------------------------------------------------------------

* Profile

* Orbital Elements

Perturbed ephemeris below is based on elements from QJ 27, 604. 

 Epoch = 2460480.50000 TT   T = 2460491.82354 TT
 Peri. =   64.41559         a =    16.8667436 AU
 Node  =   85.84736 J2000.0 e =     0.9303071
 Incl. =   44.66686         q =     1.1754925 AU

* Finding Charts

* Magnitudes Graph

        m1 = 5.0 + 5 log d + 15.0 log r

---------------------------------------------------------------------

The orbital elements are calculated using the Minor Planet & Comet Ephemeris Service.
The charts are made with StellaNavigator Ver.10 (AstroArts).
The magnitudes graphs are made with Comet for Windows.

---------------------------------------------------------------------

Copyright(C) Seiichi Yoshida (comet@aerith.net). All rights reserved.